Weather reports worldwide

Advertisment
Decimomannu, Italy (16546): temperature & dewpoint: 20.10.2020 22:00:00 - 26.10.2020 22:00:00 (CET)Decimomannu, Italy (16546): wind speed: 20.10.2020 22:00:00 - 26.10.2020 22:00:00 (CET)Decimomannu, Italy (16546): wind direction: 20.10.2020 22:00:00 - 26.10.2020 22:00:00 (CET)Decimomannu, Italy (16546): reduced air pressure: 20.10.2020 22:00:00 - 26.10.2020 22:00:00 (CET)Decimomannu, Italy (16546): visibility: 20.10.2020 22:00:00 - 26.10.2020 22:00:00 (CET)
Date & Time tt [°C] td [°C] ff [km/h] ff [kn] dd ppp [hPa] vv [km]
26.10.2020 22:00:00 16,6 13,9 5 3 NW 1012,1 10
26.10.2020 21:00:00 17,0 15,0 22 12 WSW - 10
26.10.2020 20:00:00 17,0 15,0 11 6 SW - 7
26.10.2020 19:00:00 18,0 15,2 13 7 WNW 1010,4 5
26.10.2020 18:00:00 19,0 16,0 13 7 WSW - 4,0
26.10.2020 17:00:00 23,0 19,0 31 17 SW - 10
26.10.2020 16:00:00 23,2 18,1 31 17 SW 1008,8 20
26.10.2020 15:00:00 24,0 15,0 24 13 SW - 10
26.10.2020 14:00:00 24,0 16,0 24 13 SW - 10
26.10.2020 13:00:00 23,0 16,5 16 9 S 1010,7 20
26.10.2020 12:00:00 23,0 17,0 22 12 SSE - 10
26.10.2020 11:00:00 22,0 17,0 16 9 SSE - 10
26.10.2020 10:00:00 21,6 17,0 11 6 SE 1013,2 20
26.10.2020 09:00:00 18,0 15,0 5 3 SE - 10
26.10.2020 08:00:00 11,0 8,0 5 3 ESE - 7
26.10.2020 07:00:00 10,0 7,1 2 1 ESE 1013,7 0,6
26.10.2020 06:00:00 10,0 7,0 4 2 NE - 10
26.10.2020 05:00:00 12,0 9,0 2 1 WNW - 10
26.10.2020 04:00:00 12,6 9,8 2 1 W 1014,7 12
26.10.2020 03:00:00 13,0 10,0 2 1 N - 10
26.10.2020 02:00:00 13,0 11,0 5 3 E - 10
26.10.2020 01:00:00 13,2 10,7 4 2 E 1016,2 15
26.10.2020 00:00:00 14,0 11,0 5 3 E - 10
25.10.2020 23:00:00 14,0 12,0 2 1 ESE - 10
25.10.2020 22:00:00 14,4 12,8 9 5 E 1017,0 15
25.10.2020 21:00:00 15,0 14,0 4 2 S - 10
25.10.2020 20:00:00 16,0 15,0 4 2 ESE - 10
25.10.2020 19:00:00 17,8 16,0 5 3 WSW 1016,9 20
25.10.2020 18:00:00 18,0 16,0 9 5 SW - 10
25.10.2020 17:00:00 21,0 16,0 15 8 WSW - 10
25.10.2020 16:00:00 22,4 15,0 21 11 WSW 1016,9 30
25.10.2020 15:00:00 23,0 14,0 24 13 WSW - 10
25.10.2020 14:00:00 23,0 15,0 9 5 N - 10
25.10.2020 13:00:00 22,6 13,9 9 5 NNW 1018,1 30
25.10.2020 12:00:00 21,0 16,0 2 1 N - 10
25.10.2020 11:00:00 20,0 16,0 5 3 SW - 10
25.10.2020 10:00:00 17,6 14,3 2 1 ESE 1019,3 12
25.10.2020 09:00:00 13,0 10,0 2 1 WSW - 10
25.10.2020 08:00:00 11,0 8,0 4 2 W - 10
25.10.2020 07:00:00 10,4 7,5 5 3 NE 1019,0 10
25.10.2020 06:00:00 11,0 8,0 2 1 NNE - 10
25.10.2020 05:00:00 11,0 8,0 8 4 N - 10
25.10.2020 04:00:00 11,0 8,4 2 1 W 1019,1 10
25.10.2020 03:00:00 12,0 9,0 4 2 WNW - 10
25.10.2020 02:00:00 12,0 9,0 2 1 NW - 10
25.10.2020 01:00:00 - - - - - - -
25.10.2020 00:00:00 12,0 10,0 4 2 ENE - 10
24.10.2020 23:00:00 13,0 11,0 5 3 N - 10
24.10.2020 22:00:00 14,0 12,2 5 3 ENE 1020,6 12
24.10.2020 21:00:00 15,0 14,0 2 1 N - 10
24.10.2020 20:00:00 16,0 14,0 2 1 NNE - 10
24.10.2020 19:00:00 17,2 15,5 4 2 WNW 1020,2 30
24.10.2020 18:00:00 18,0 15,0 13 7 NW - 10
24.10.2020 17:00:00 20,0 15,0 21 11 NW - 10
24.10.2020 16:00:00 22,2 14,1 22 12 NW 1019,8 30
24.10.2020 15:00:00 22,0 14,0 26 14 NW - 10
24.10.2020 14:00:00 23,0 14,0 29 16 NW - 10
24.10.2020 13:00:00 23,2 11,0 28 15 W 1020,4 30
24.10.2020 12:00:00 23,0 14,0 18 10 WNW - 10
24.10.2020 11:00:00 23,0 15,0 11 6 NNW - 10
24.10.2020 10:00:00 20,0 18,0 9 5 W 1021,1 20
24.10.2020 09:00:00 19,0 16,0 8 4 SW - 10
24.10.2020 08:00:00 18,0 15,0 5 3 SW - 8
24.10.2020 07:00:00 18,0 14,9 11 6 SW 1020,2 10
24.10.2020 06:00:00 19,0 16,0 5 3 WNW - 8
24.10.2020 05:00:00 19,0 16,0 5 3 WNW - 8
24.10.2020 04:00:00 19,4 16,8 11 6 WNW 1020,8 10
24.10.2020 03:00:00 20,0 17,0 13 7 W - 10
24.10.2020 02:00:00 19,0 17,0 15 8 W - 8
24.10.2020 01:00:00 19,4 17,0 9 5 WNW 1021,0 15
24.10.2020 00:00:00 19,0 17,0 9 5 W - 10
23.10.2020 23:00:00 19,0 17,0 8 4 WSW - 10
23.10.2020 22:00:00 20,0 17,6 5 3 W 1020,0 10
23.10.2020 21:00:00 20,0 18,0 5 3 NW - 10
23.10.2020 20:00:00 21,0 19,0 5 3 NNW - 10
23.10.2020 19:00:00 21,4 19,7 8 4 NNW 1019,2 12
23.10.2020 18:00:00 23,0 21,0 5 3 WSW - 10
23.10.2020 17:00:00 25,0 22,0 8 4 SE - 10
23.10.2020 16:00:00 25,2 21,5 9 5 SSE 1018,2 12
23.10.2020 15:00:00 25,0 20,0 11 6 SSE - 10
23.10.2020 14:00:00 25,0 20,0 13 7 SSE - 10
23.10.2020 13:00:00 25,0 20,7 15 8 SSE 1018,8 12
23.10.2020 12:00:00 25,0 21,0 18 10 SSE - 10
23.10.2020 11:00:00 24,0 20,0 16 9 SSE - 10
23.10.2020 10:00:00 22,4 19,2 21 11 SSE 1019,7 12
23.10.2020 09:00:00 22,0 19,0 16 9 SE - 10
23.10.2020 08:00:00 22,0 19,0 15 8 ESE - 10
23.10.2020 07:00:00 20,0 17,6 15 8 SE 1018,8 12
23.10.2020 06:00:00 20,0 18,0 15 8 SE - 10
23.10.2020 05:00:00 20,0 18,0 15 8 SE - 10
23.10.2020 04:00:00 20,0 17,6 15 8 SE 1019,0 12
23.10.2020 03:00:00 20,0 18,0 16 9 SE - 10
23.10.2020 02:00:00 20,0 18,0 21 11 ESE - 10
23.10.2020 01:00:00 20,0 17,8 16 9 ESE 1019,7 15
23.10.2020 00:00:00 20,0 18,0 18 10 SE - 10
22.10.2020 23:00:00 20,0 18,0 15 8 ESE - 10
22.10.2020 22:00:00 20,0 18,5 9 5 E 1019,7 15
22.10.2020 21:00:00 21,0 19,0 4 2 NNW - 10
22.10.2020 20:00:00 22,0 20,0 5 3 ENE - 10
22.10.2020 19:00:00 22,6 20,1 11 6 ESE 1019,5 20
22.10.2020 18:00:00 23,0 20,0 11 6 ESE - 10
22.10.2020 17:00:00 24,0 20,0 16 9 SE - 10
22.10.2020 16:00:00 24,0 18,4 24 13 SSE 1019,3 20
22.10.2020 15:00:00 24,0 18,0 24 13 SSE - 10
22.10.2020 14:00:00 24,0 17,0 26 14 SSE - 10
22.10.2020 13:00:00 24,0 17,0 26 14 SSE 1019,8 20
22.10.2020 12:00:00 24,0 17,0 28 15 SE - 10
22.10.2020 11:00:00 24,0 17,0 28 15 SE - 10
22.10.2020 10:00:00 23,8 18,2 26 14 SE 1021,2 20
22.10.2020 09:00:00 21,0 18,0 18 10 SE - 10
22.10.2020 08:00:00 18,0 15,0 13 7 ESE - 10
22.10.2020 07:00:00 17,4 15,2 9 5 ENE 1020,0 20
22.10.2020 06:00:00 18,0 16,0 5 3 ENE - 10
22.10.2020 05:00:00 18,0 16,0 8 4 ENE - 10
22.10.2020 04:00:00 18,0 15,8 11 6 ENE 1019,8 14
22.10.2020 03:00:00 18,0 16,0 9 5 ENE - 10
22.10.2020 02:00:00 20,0 18,0 5 3 NNE - 10
22.10.2020 01:00:00 19,8 17,2 8 4 NE 1020,2 14
22.10.2020 00:00:00 20,0 18,0 9 5 E - 10
21.10.2020 23:00:00 20,0 18,0 11 6 E - 10
21.10.2020 22:00:00 19,8 16,7 5 3 ESE 1020,4 14
21.10.2020 21:00:00 20,0 18,0 8 4 ESE - 10
21.10.2020 20:00:00 20,0 18,0 5 3 ESE - 10
21.10.2020 19:00:00 21,4 19,5 5 3 E 1019,5 15
21.10.2020 18:00:00 22,0 20,0 13 7 ESE - 10
21.10.2020 17:00:00 23,0 19,0 21 11 SE - 10
21.10.2020 16:00:00 23,8 19,3 28 15 SE 1019,0 25
21.10.2020 15:00:00 24,0 18,0 29 16 SE - 10
21.10.2020 14:00:00 24,0 16,0 28 15 SSE - 10
21.10.2020 13:00:00 23,6 17,8 29 16 SE 1019,8 25
21.10.2020 12:00:00 23,0 17,0 29 16 SE - 10
21.10.2020 11:00:00 22,0 18,0 26 14 ESE - 10
21.10.2020 10:00:00 21,0 17,4 28 15 SE 1020,8 20
21.10.2020 09:00:00 20,0 16,0 22 12 SSE - 10
21.10.2020 08:00:00 17,0 14,0 8 4 E - 10
21.10.2020 07:00:00 15,6 13,6 9 5 E 1019,6 14
21.10.2020 06:00:00 16,0 13,0 9 5 ESE - 10
21.10.2020 05:00:00 15,0 13,0 11 6 E - 10
21.10.2020 04:00:00 14,0 11,7 13 7 E 1020,6 12
21.10.2020 03:00:00 14,0 12,0 11 6 E - 10
21.10.2020 02:00:00 13,0 12,0 9 5 E - 10
21.10.2020 01:00:00 13,4 11,5 5 3 E 1021,2 12
21.10.2020 00:00:00 13,0 11,0 5 3 E - 10
20.10.2020 23:00:00 14,0 13,0 2 1 E - 10
20.10.2020 22:00:00 14,8 13,4 4 2 E 1021,8 15

tt = temperature
td = dewpoint
ff = wind speed
dd = wind direction
ppp = reduced air pressure
vv = visibility

Next stations